Theta_e
312 312 312 312 311 311 311 311 311 311 311 311 312 312 312 312 312 313 313 314 315 315 316 316 317 318 315 310 305 315 327 322 317 315 309 306 303 304 301 303 304 302 305 309 311 313 314
311 311 311 311 311 311 311 311 311 311 312 311 311 311 311 312 312 312 313 314 314 314 315 316 317 318 312 305 311 313 313 313 312 310 309 308 305 305 301 302 303 305 305 306 308 309 312
311 311 311 311 311 311 311 312 312 312 312 312 312 311 311 311 311 312 313 313 314 314 315 316 318 315 311 306 312 313 313 311 312 311 307 309 309 305 304 300 305 304 301 304 305 306 307
312 312 311 311 312 312 312 312 312 312 312 313 313 312 311 311 311 312 313 313 313 314 317 317 319 314 308 311 313 311 311 309 312 311 309 310 310 305 302 304 301 298 300 296 303 305 307
312 312 312 312 312 312 312 312 312 313 312 312 312 312 311 311 311 312 312 312 313 316 318 317 314 314 304 312 307 309 310 306 307 308 309 310 307 302 302 297 294 296 290 293 297 305 304
312 313 313 313 313 313 312 312 312 312 312 312 312 312 310 310 311 311 311 311 316 316 317 318 315 305 309 303 307 307 310 308 305 305 305 305 303 299 299 296 288 291 292 294 294 299 302
312 313 312 312 312 311 311 311 311 311 311 312 312 311 311 311 311 311 311 314 309 309 312 305 303 303 304 307 309 306 308 305 305 303 297 301 296 293 297 299 299 296 295 294 297 300 298
312 312 312 311 311 310 310 310 310 310 311 311 311 311 311 311 311 311 310 309 306 308 300 306 306 305 306 306 300 305 308 300 300 295 298 296 293 298 299 299 297 296 293 292 296 299 298
312 312 312 311 310 310 310 311 311 311 311 311 311 311 311 311 311 309 312 308 313 312 300 303 304 302 303 305 300 301 304 301 297 294 295 292 295 298 296 295 294 294 292 293 292 296 297
311 311 311 310 311 311 311 311 311 311 311 311 310 310 310 310 307 311 310 314 314 313 295 297 299 302 303 303 299 305 306 301 297 293 295 294 297 295 294 293 294 290 296 295 293 291 287
311 311 312 312 311 311 311 312 312 311 311 310 310 310 310 309 309 310 310 315 314 310 286 298 299 307 304 300 301 302 306 301 295 295 295 292 294 294 293 293 296 292 297 294 294 292 291
311 311 312 312 311 311 311 311 311 311 311 310 310 310 310 313 312 313 314 315 312 295 285 294 299 297 298 300 300 301 301 304 302 296 297 295 300 298 296 298 298 298 295 294 294 292 284
310 311 312 311 311 311 310 310 311 311 310 310 310 309 307 313 309 314 314 309 294 289 297 294 295 298 296 296 297 297 296 295 293 289 289 293 293 297 299 294 297 295 291 283 281 283 283
311 311 311 311 310 310 310 310 310 310 310 309 307 307 312 313 316 315 310 301 289 295 294 298 297 296 294 296 296 296 295 292 297 294 290 286 284 292 297 293 290 291 291 284 276 279 283
311 311 311 310 310 310 310 310 310 309 309 308 306 315 314 317 316 313 303 293 293 294 296 294 295 293 293 295 295 295 294 293 295 296 288 287 287 296 296 296 296 292 288 294 287 288 284
311 311 310 310 310 311 310 310 310 310 309 307 307 311 312 315 316 308 299 294 295 298 297 296 290 294 290 292 292 292 292 296 294 297 297 292 286 293 295 297 297 295 297 288 289 279 278
311 311 310 310 310 310 310 310 310 309 308 306 309 306 313 314 312 304 296 295 297 299 297 295 293 292 292 291 293 291 292 295 298 296 298 295 291 289 293 291 290 291 291 291 291 287 280
310 310 310 310 310 310 310 309 308 308 306 307 308 300 313 312 300 302 296 296 296 296 300 298 298 295 293 293 291 291 291 294 299 298 292 295 291 286 288 295 297 295 291 291 284 284 288
310 310 310 310 310 310 309 308 308 307 306 305 303 304 313 310 297 296 298 298 299 296 297 296 295 297 297 293 290 293 294 299 299 297 294 296 289 283 285 290 292 289 292 293 293 292 286
310 310 310 310 310 309 308 308 307 307 306 306 304 298 304 304 305 298 296 296 295 299 297 298 296 297 295 293 295 292 293 296 299 297 301 299 291 286 282 286 291 287 290 293 292 286 287
309 310 310 310 310 308 307 307 307 306 305 307 304 300 302 295 296 297 298 297 295 294 298 298 295 296 294 290 291 291 294 295 297 300 298 296 289 290 291 292 292 290 290 291 290 291 286
309 310 310 309 308 307 306 306 306 306 305 306 298 297 299 296 298 297 298 296 296 295 296 294 293 295 295 291 292 291 294 294 293 297 296 298 289 291 288 292 292 289 291 292 292 291 290
309 309 309 308 307 305 304 305 306 306 306 303 303 304 297 294 297 295 296 295 295 297 296 297 296 295 293 295 299 299 299 299 298 295 295 294 291 288 284 290 290 285 290 291 293 295 294
309 309 307 306 304 304 304 304 305 305 305 305 304 302 295 291 293 293 294 296 294 296 294 296 298 295 299 304 303 302 301 300 299 298 300 293 291 288 285 288 279 291 296 295 293 294 297
309 307 305 304 303 303 303 303 303 304 304 303 305 301 297 290 293 294 296 295 296 297 296 297 298 301 304 300 294 292 295 293 296 297 298 299 291 286 284 284 287 290 292 292 291 290 297
307 305 304 303 302 302 302 302 302 303 304 303 304 307 302 292 293 295 294 296 293 292 294 297 301 305 302 297 293 287 286 290 289 293 300 298 292 287 286 281 279 288 293 297 295 286 295
305 304 303 302 301 302 301 302 302 303 303 302 301 310 302 293 297 298 294 294 296 294 289 294 297 297 303 294 290 288 288 294 288 288 289 292 290 284 286 284 287 291 297 297 284 287 294
304 303 302 301 301 301 301 301 301 301 302 302 301 307 301 295 296 298 299 297 297 295 289 295 294 294 296 291 291 291 290 292 291 293 291 290 288 288 289 285 282 297 296 287 293 296 296
303 302 301 301 300 301 301 301 302 302 302 302 297 304 306 300 297 302 303 303 302 301 297 296 294 293 294 293 293 293 290 293 291 286 297 290 294 289 289 292 300 302 298 299 299 297 298
Wind_Speed
17 17 17 18 18 18 18 18 18 18 19 19 19 19 19 19 19 19 18 18 19 19 20 19 15 15 10 8 4 11 12 14 15 15 14 9 13 14 19 20 22 29 27 26 25 25 25
17 17 17 18 18 19 19 19 19 19 18 19 19 20 20 20 20 20 19 18 17 18 19 19 15 13 8 13 4 2 6 9 6 7 10 11 9 13 19 21 22 22 27 26 26 26 26
17 18 18 18 18 19 19 20 20 19 19 18 18 19 21 21 21 21 19 18 17 20 20 18 12 9 12 4 3 5 8 6 5 5 8 10 14 12 14 17 23 22 26 25 27 25 26
18 18 18 18 18 19 19 19 19 20 20 19 18 18 20 21 21 22 22 20 21 20 16 13 9 8 9 6 6 6 11 11 5 8 10 7 9 13 13 16 24 21 22 22 24 27 28
17 18 18 19 19 19 20 20 20 19 20 20 19 19 21 21 22 22 21 21 21 19 10 7 7 10 8 7 4 9 10 7 10 10 11 8 7 11 13 14 16 16 21 25 26 23 24
17 17 17 18 18 18 19 20 20 21 21 21 20 20 20 21 23 22 22 25 11 8 9 10 11 9 8 3 9 10 6 5 10 10 12 13 12 13 13 13 15 17 20 20 25 24 26
17 18 19 20 20 20 19 22 21 22 24 24 23 23 21 21 21 20 14 7 5 7 13 13 13 11 10 5 8 7 3 7 11 9 13 12 12 13 17 16 19 20 21 24 25 26 27
18 19 20 21 22 22 22 23 24 24 24 25 26 25 24 22 20 18 10 8 8 9 11 15 13 9 6 5 7 8 4 9 13 12 15 13 14 14 15 16 19 20 20 23 23 24 23
18 19 19 21 22 22 23 22 22 22 23 24 25 26 25 22 18 11 10 8 8 10 8 5 2 6 7 4 11 12 4 10 12 14 15 15 17 19 20 20 21 19 21 21 23 21 21
18 19 20 20 19 20 21 22 22 23 25 25 25 26 25 21 7 5 1 7 9 8 7 8 8 2 4 5 15 3 9 4 10 15 15 15 18 19 19 20 23 22 20 23 22 21 18
18 19 18 19 20 20 20 21 23 24 25 26 26 26 24 10 11 5 9 9 9 5 3 4 6 6 4 8 10 5 3 7 15 17 14 16 18 16 18 21 20 21 21 22 23 23 22
18 19 19 19 20 21 21 22 23 24 26 27 26 26 21 6 7 6 7 8 6 6 0 3 2 4 9 9 13 4 11 12 19 20 18 17 8 14 14 16 21 21 21 23 22 19 20
18 19 18 19 21 21 22 23 24 25 26 29 29 25 13 11 8 9 9 8 6 6 5 3 8 13 14 16 7 5 7 15 13 11 13 16 13 5 11 15 20 17 6 5 10 15 18
16 17 18 19 20 21 22 24 24 25 27 29 32 25 6 8 8 8 8 8 5 6 7 14 11 16 19 2 8 6 14 14 13 11 13 15 16 12 5 7 21 26 13 13 17 16 18
17 16 18 20 20 21 21 22 24 25 26 29 30 5 7 7 4 5 7 6 5 12 12 12 15 12 10 11 12 11 14 11 9 13 12 16 15 19 20 23 14 16 16 18 19 23 16
17 17 18 19 20 21 22 22 24 25 26 32 10 9 2 4 3 4 5 9 12 8 10 11 14 8 14 17 14 12 13 12 9 12 3 11 21 18 21 23 14 23 18 18 10 16 19
17 17 18 19 20 21 22 22 23 25 26 33 5 6 6 5 2 5 4 10 13 13 11 7 12 14 14 13 15 15 16 15 15 14 14 16 12 17 20 19 18 10 17 14 16 8 6
16 17 18 19 20 20 21 21 22 23 25 12 7 4 6 2 5 4 6 6 7 10 7 11 8 10 11 13 15 15 18 14 13 16 16 9 7 13 20 14 19 27 12 5 4 10 13
16 17 18 19 18 18 17 20 22 23 17 10 8 6 5 2 3 7 10 11 14 4 9 11 10 14 10 13 12 9 16 14 16 10 7 6 5 13 13 2 4 8 21 20 14 11 13
16 17 17 18 17 16 19 20 21 22 18 9 7 5 2 4 2 7 12 14 9 5 6 8 9 14 12 12 12 11 17 8 11 16 16 11 13 15 14 20 21 5 19 24 17 11 14
16 17 17 16 15 17 19 20 20 22 23 8 4 4 6 6 9 14 12 14 14 11 10 8 12 16 14 15 18 16 13 18 16 17 10 4 13 16 20 22 23 24 21 23 25 26 14
16 16 16 15 15 17 17 17 18 22 27 1 5 6 8 12 11 12 11 11 17 10 15 16 15 16 13 14 17 22 20 17 16 15 11 7 12 17 23 23 24 20 20 25 29 22 19
15 14 15 15 16 16 16 16 16 18 19 4 4 1 3 9 10 11 8 12 16 13 8 12 13 18 18 18 19 19 19 21 19 18 18 10 7 9 11 14 14 16 15 15 22 23 15
13 13 15 15 15 15 15 15 14 13 14 2 3 4 3 6 10 12 18 16 16 15 16 19 18 18 19 20 19 20 22 22 12 11 12 6 7 2 9 7 5 5 9 11 18 24 15
13 14 14 15 15 14 14 14 13 13 12 9 6 3 3 7 12 16 15 17 18 17 17 19 18 14 12 16 15 12 13 6 10 12 19 13 2 3 5 9 15 6 6 7 11 23 18
12 13 13 14 15 15 14 14 13 13 10 9 9 2 4 5 7 18 17 12 10 13 15 15 19 14 10 8 10 10 12 9 5 3 7 8 7 3 7 6 5 3 3 4 7 15 16
12 12 12 12 14 15 14 14 14 13 12 9 9 8 5 7 14 13 11 16 16 9 8 17 12 10 6 5 7 8 10 7 5 6 6 4 4 5 8 6 4 3 7 1 3 5 20
11 11 12 12 13 14 14 14 13 13 13 9 9 10 8 10 18 25 22 18 13 8 7 11 10 4 7 3 4 4 6 7 10 12 12 5 5 4 3 5 3 6 4 2 4 13 13
11 12 12 12 13 14 14 14 13 14 13 11 10 9 8 6 14 23 25 27 28 24 13 3 7 7 5 4 2 4 6 5 11 6 11 5 4 3 5 5 12 10 0 3 7 10 14
Wind_Direction
7 6 5 3 1 358 355 352 351 348 346 344 342 338 335 331 326 324 321 320 319 316 312 310 310 312 305 229 57 149 197 223 245 241 253 273 265 256 251 251 250 249 247 252 256 256 256
8 7 6 5 2 359 357 355 353 350 346 345 342 340 336 331 325 321 317 313 309 305 300 298 304 306 260 277 28 341 266 276 317 323 310 303 280 285 289 282 265 262 261 260 253 249 257
8 6 5 3 1 360 357 354 352 350 346 342 340 337 334 330 325 319 314 309 306 303 296 290 291 281 273 298 297 283 272 322 303 314 305 309 327 309 299 292 248 263 273 275 265 263 253
5 4 3 2 360 359 357 355 353 349 345 342 339 334 332 329 322 317 312 311 308 305 289 273 276 274 276 86 334 305 330 305 286 307 279 254 279 286 280 279 287 280 271 268 247 249 256
5 4 1 360 359 357 353 351 350 345 343 342 339 335 331 326 321 314 308 304 299 294 271 254 246 225 280 132 223 347 309 320 321 299 308 282 260 270 280 266 258 243 259 261 267 256 253
3 1 1 359 357 355 351 349 345 343 340 339 335 334 330 325 318 313 312 291 276 267 236 220 252 254 254 311 359 301 290 302 305 299 281 248 232 257 249 245 255 269 257 251 253 258 268
0 360 360 359 357 354 349 348 345 342 340 337 335 331 325 321 314 312 325 312 223 196 237 278 300 288 282 359 307 288 353 292 299 269 292 322 304 279 283 274 291 303 291 284 284 294 297
359 0 359 357 355 354 351 349 346 342 339 332 331 329 325 321 311 308 287 294 33 324 303 283 270 265 281 275 291 298 317 302 315 305 308 289 273 284 283 267 267 275 288 287 289 292 291
358 358 356 355 354 352 349 345 342 339 336 333 330 328 325 320 314 285 252 33 325 323 287 310 252 242 255 254 276 298 319 297 297 308 305 307 303 304 294 289 281 268 268 275 284 294 283
356 353 353 353 347 344 342 341 337 335 333 332 331 330 328 322 292 297 41 351 334 3 273 133 187 161 244 249 263 280 257 304 295 299 307 302 289 283 280 274 280 282 281 277 281 280 275
351 351 343 343 342 341 336 335 335 333 331 329 330 330 328 312 315 322 357 339 347 254 234 137 106 99 254 239 284 252 154 255 274 285 283 290 295 325 306 294 302 283 300 293 288 286 285
350 346 342 341 339 338 339 335 335 334 331 328 329 328 332 232 226 305 332 328 256 252 63 141 189 251 288 302 288 318 258 257 264 260 254 265 307 274 292 313 303 306 291 288 276 276 261
349 343 339 339 340 336 336 336 334 334 332 327 328 324 316 313 334 351 330 280 249 273 122 72 348 321 318 283 341 294 296 280 291 317 310 318 315 45 350 307 297 271 231 302 275 267 266
340 341 341 339 338 338 338 334 334 333 331 327 326 317 249 262 318 346 303 274 277 329 337 2 332 308 275 247 282 272 272 293 321 347 318 313 303 344 98 283 287 283 308 287 277 282 280
339 336 343 339 339 340 337 336 334 335 333 328 317 249 235 213 326 324 291 252 310 7 356 330 315 305 332 333 335 327 309 325 336 0 348 315 302 313 300 294 289 288 277 276 291 280 280
339 343 342 340 338 338 338 339 337 337 336 325 316 292 203 80 60 290 263 270 293 13 349 327 300 313 335 318 321 329 314 330 21 327 113 269 306 311 294 289 310 272 263 281 278 275 263
337 340 342 343 337 336 339 342 342 338 337 320 248 242 96 328 295 245 259 286 328 359 329 321 327 312 311 324 325 327 313 322 9 329 323 329 327 303 301 280 287 286 268 262 258 169 235
335 338 342 341 339 340 341 346 345 344 340 331 297 305 98 296 253 284 255 356 300 297 311 269 283 305 306 322 315 306 299 322 331 338 324 352 286 293 295 326 6 326 280 348 233 263 275
336 337 338 336 340 341 348 344 346 342 360 323 303 290 137 249 319 332 325 312 303 294 321 321 300 297 310 287 299 302 300 306 334 331 341 342 293 308 295 205 43 303 316 299 288 285 229
338 335 336 338 341 354 347 344 344 339 340 322 294 333 0 287 271 299 333 314 314 315 261 279 292 288 293 304 285 287 284 322 318 318 315 289 256 258 275 283 288 266 271 276 273 225 269
336 335 336 339 348 351 352 347 345 339 330 303 339 328 26 307 334 319 299 300 299 306 314 317 306 301 301 315 309 309 288 305 304 308 293 279 272 275 275 284 289 296 263 264 241 255 271
331 332 338 344 348 355 353 353 350 342 329 35 354 341 344 296 311 293 286 303 308 327 340 310 295 292 330 292 285 294 301 296 293 296 306 312 281 285 286 289 291 295 304 297 288 274 274
326 331 340 345 351 350 352 352 354 353 338 12 346 233 347 287 283 309 322 324 310 317 312 294 321 318 302 297 311 309 295 285 274 268 278 288 290 319 286 281 286 283 310 308 322 310 336
326 335 342 343 345 346 348 347 351 356 349 330 308 298 314 290 324 326 314 292 294 296 296 295 291 285 285 308 314 292 272 259 278 293 266 216 278 281 282 345 259 36 14 345 304 300 342
327 336 338 339 339 341 343 346 346 345 346 298 274 293 304 286 316 293 344 323 318 304 295 308 295 298 329 300 297 304 305 47 245 221 226 203 142 246 279 307 278 325 20 0 350 302 356
327 332 337 336 335 335 340 339 339 334 337 298 292 234 273 299 237 344 311 331 336 319 309 303 339 346 301 283 284 280 295 313 337 35 177 194 111 237 309 282 288 78 12 280 297 272 359
323 324 330 333 331 331 333 333 332 328 329 307 291 275 257 273 274 285 297 308 309 285 281 292 344 311 293 274 293 275 293 313 327 354 310 270 190 221 253 275 265 195 337 5 238 336 319
314 318 321 325 327 324 326 326 325 322 319 313 302 303 274 267 279 278 280 287 288 278 255 296 315 14 291 278 295 335 321 334 308 333 305 289 295 295 288 276 290 225 19 163 272 287 286
308 312 315 318 320 319 321 319 316 313 311 306 285 275 315 270 271 300 285 278 264 265 267 228 273 321 287 302 9 313 315 293 310 291 317 282 307 239 216 254 314 337 132 257 263 311 316